[[{"header":{"parameterUnit":"m.s-1","parameterCategory":2,"la1":30.2992,"la2":30.254,"lo1":-89.0895,"lo2":-89.0443,"dy":0.0025,"dx":0.0025,"nx":19,"ny":19,"refTime":"2026-05-06T03:00:00:Z","depth":"0","parameterNumber":2,"parameterNumberName":"U-component_of_CURRENTS"},"data":[0,0,0,0.2569,0.2571,0.2616,0.2616,0.271,0.2711,0,0,0,0,0,0,0,0,0,0,0,0.254,0.254,0.2569,0.2571,0.2616,0.2616,0.2709,0.2711,0,0,0,0,0,0,0,0,0,0,0,0.254,0.254,0.254,0.2571,0.2616,0.2616,0.2709,0.2664,0,0,0,0,0,0,0,0,0,0,0.2615,0.2574,0.254,0.254,0.2571,0.2616,0.2617,0.2661,0.2667,0.2701,0,0.2704,0,0.2721,0.2718,0.2719,0,0,0,0.2563,0.2569,0.2597,0.254,0.2572,0.2616,0.2593,0.2664,0.267,0.2709,0.2705,0.2709,0.2723,0.2719,0.272,0.2948,0.295,0,0,0.256,0.2536,0.2593,0.2601,0.2579,0.2592,0.2595,0.2667,0.2664,0.2705,0.2711,0.2724,0.272,0.2721,0.2947,0.2949,0,0,0,0.2558,0.2534,0.2559,0.2597,0.2609,0.2594,0.2597,0.266,0.2673,0.2712,0.2725,0.2721,0.2722,0.2945,0.2947,0.3077,0,0,0,0.2556,0.2535,0.2558,0.2543,0.2607,0.2629,0.2588,0.2667,0.2676,0.2725,0.2721,0.2723,0.2943,0.2946,0.3069,0.3106,0,0,0,0.2538,0.2533,0.254,0.2542,0.2569,0.2628,0.2643,0.2669,0.2685,0.2719,0.2723,0.2942,0.2946,0.3063,0.3095,0.3212,0,0,0,0.2511,0.2506,0.2538,0.2544,0.2568,0.2638,0.2643,0.2675,0.2701,0.2721,0.2943,0.2947,0.3061,0.3089,0.3205,0.3119,0.3145,0,0,0.2491,0.2503,0.251,0.2541,0.262,0.2631,0.2761,0.2782,0.2786,0.2916,0.2921,0.3072,0.3095,0.3211,0.3343,0.3362,0,0,0,0.2496,0.2524,0.2541,0.2601,0.2649,0.279,0.2817,0.2876,0.3006,0.2824,0.3115,0.3126,0.3194,0.3129,0.3146,0.3074,0.2965,0.2965,0.2964,0.2481,0.2536,0.2613,0.2719,0.2776,0.2909,0.3023,0.3135,0.3097,0.3198,0.3264,0.3482,0.3416,0.3427,0.3357,0.3312,0.3313,0.3313,0.3313,0.258,0.2672,0.275,0.2848,0.2984,0.3104,0.3297,0.333,0.3526,0.3447,0.3509,0.3309,0.3451,0.337,0.3323,0.3321,0.332,0.3319,0.3318,0.2671,0.2729,0.2787,0.294,0.3094,0.3221,0.3399,0.3521,0.364,0.3726,0.3645,0.364,0.3538,0.3757,0.3758,0.3759,0.3759,0.376,0.376,0.2756,0.2825,0.289,0.3017,0.3077,0.3211,0.3435,0.3565,0.3732,0.3781,0.378,0.3613,0.3617,0.3564,0.3772,0.3769,0.3768,0.3767,0.3766,0.2923,0.2866,0.2946,0.2989,0.3088,0.3115,0.3352,0.3561,0.3743,0.3818,0.3762,0.3822,0.3769,0.3753,0.3704,0.3936,0.3936,0.3936,0.3936,0.2974,0.2974,0.2982,0.2985,0.3025,0.3072,0.3163,0.3416,0.3677,0.3762,0.3798,0.3661,0.3657,0.359,0.3577,0.3522,0.3703,0.3702,0.3702,0.3079,0.3033,0.3021,0.295,0.296,0.297,0.2962,0.3116,0.3501,0.3689,0.3732,0.3742,0.3534,0.3533,0.3411,0.3399,0.3301,0,0]},{"header":{"parameterUnit":"m.s-1","parameterCategory":2,"la1":30.2992,"la2":30.254,"lo1":-89.0895,"lo2":-89.0443,"dy":0.0025,"dx":0.0025,"nx":19,"ny":19,"refTime":"2026-05-06T03:00:00:Z","depth":"0","parameterNumber":3,"parameterNumberName":"V-component_of_CURRENTS"},"data":[0,0,0,0.0082,0.0082,0.006,0.006,0.0032,0.0031,0,0,0,0,0,0,0,0,0,0,0,0.0091,0.0091,0.0082,0.0082,0.006,0.006,0.0032,0.0031,0,0,0,0,0,0,0,0,0,0,0,0.0091,0.0091,0.0091,0.0082,0.006,0.006,0.0032,0.0048,0,0,0,0,0,0,0,0,0,0,0.0069,0.0084,0.0091,0.0091,0.0082,0.006,0.006,0.0048,0.0047,0.0042,0,0.0041,0,0.0036,0.003,0.003,0,0,0,0.0079,0.0086,0.0074,0.0091,0.0082,0.006,0.0069,0.0048,0.0046,0.004,0.0041,0.004,0.0036,0.003,0.003,0.0221,0.0223,0,0,0.0081,0.0092,0.0075,0.0073,0.0079,0.007,0.0069,0.0046,0.0049,0.0041,0.0039,0.0035,0.0029,0.0029,0.0218,0.0221,0,0,0,0.0086,0.0093,0.0082,0.0074,0.007,0.0069,0.0068,0.005,0.0045,0.0039,0.0035,0.0029,0.0029,0.0216,0.0219,0.047,0,0,0,0.0086,0.0096,0.0082,0.009,0.0071,0.0062,0.0072,0.0046,0.0044,0.0035,0.0029,0.0029,0.0213,0.0218,0.0458,0.0616,0,0,0,0.0092,0.0097,0.0094,0.009,0.0081,0.0062,0.0055,0.0046,0.0041,0.003,0.0029,0.0212,0.0217,0.0447,0.0596,0.0724,0,0,0,0.0104,0.0134,0.0094,0.0142,0.0081,0.0156,0.0055,0.0085,0.0088,0.0029,0.0214,0.0219,0.0444,0.0583,0.0712,0.0711,0.0766,0,0,0.0156,0.0141,0.0175,0.0139,0.0263,0.0158,0.0329,0.0265,0.0176,0.0213,0.0218,0.0462,0.0594,0.0721,0.1024,0.107,0,0,0,0.0203,0.0254,0.0273,0.0338,0.0347,0.0483,0.0401,0.0403,0.0455,0.0201,0.0502,0.058,0.065,0.0625,0.0664,0.0353,0.0244,0.0244,0.0243,0.0329,0.0365,0.0514,0.0595,0.0651,0.0707,0.0793,0.08,0.0638,0.0723,0.0812,0.1128,0.1107,0.1135,0.0818,0.0817,0.0818,0.0819,0.082,0.0574,0.0734,0.0789,0.0956,0.1057,0.1192,0.1249,0.1184,0.1283,0.1107,0.116,0.0928,0.1192,0.0837,0.0836,0.0834,0.0831,0.083,0.0829,0.0802,0.0898,0.0986,0.1229,0.1452,0.151,0.171,0.1672,0.1573,0.1643,0.153,0.1524,0.1182,0.1635,0.1637,0.1638,0.1639,0.164,0.1641,0.103,0.113,0.1287,0.1505,0.163,0.1828,0.1961,0.2012,0.1992,0.186,0.1857,0.1282,0.1376,0.131,0.1662,0.1658,0.1655,0.1653,0.1652,0.1351,0.1306,0.1521,0.1643,0.191,0.2114,0.2228,0.2334,0.2351,0.2348,0.1691,0.1937,0.1853,0.1818,0.1762,0.2211,0.2211,0.2211,0.2211,0.1489,0.151,0.1691,0.1847,0.2078,0.2242,0.2487,0.2565,0.2223,0.194,0.1747,0.1501,0.1492,0.1368,0.1343,0.127,0.1584,0.1582,0.1581,0.1645,0.1653,0.178,0.189,0.2133,0.2358,0.2582,0.2669,0.2031,0.1519,0.133,0.1357,0.0947,0.0958,0.0709,0.0699,0.0557,0,0]}],[{"header":{"parameterUnit":"m.s-1","parameterCategory":2,"la1":30.2992,"la2":30.254,"lo1":-89.0895,"lo2":-89.0443,"dy":0.0025,"dx":0.0025,"nx":19,"ny":19,"refTime":"2026-05-06T03:00:00:Z","depth":"2","parameterNumber":2,"parameterNumberName":"U-component_of_CURRENTS"},"data":[0,0,0,0.2561,0.2562,0.2603,0.2603,0.2649,0.2649,0,0,0,0,0,0,0,0,0,0,0,0.2532,0.2532,0.2561,0.2562,0.2603,0.2603,0.2648,0.2649,0,0,0,0,0,0,0,0,0,0,0,0.2532,0.2532,0.2533,0.2563,0.2603,0.2603,0.2648,0.2617,0,0,0,0,0,0,0,0,0,0,0.2577,0.2545,0.2532,0.2533,0.2563,0.2603,0.2603,0.2615,0.2619,0.2631,0,0.2634,0,0.2654,0.2653,0.2653,0,0,0,0.2553,0.2542,0.2568,0.2533,0.2563,0.2603,0.2582,0.2617,0.2621,0.2636,0.2635,0.2637,0.2655,0.2653,0.2654,0.2797,0.2798,0,0,0.255,0.2527,0.2565,0.257,0.257,0.2581,0.2583,0.262,0.2613,0.2635,0.2639,0.2656,0.2654,0.2654,0.2796,0.2798,0,0,0,0.255,0.2525,0.255,0.2568,0.2582,0.2582,0.2585,0.2611,0.2623,0.2639,0.2656,0.2654,0.2655,0.2795,0.2797,0.2911,0,0,0,0.2549,0.2527,0.2548,0.2533,0.2581,0.2597,0.2575,0.262,0.2626,0.2656,0.2654,0.2655,0.2794,0.2796,0.2905,0.2983,0,0,0,0.2531,0.2525,0.2531,0.2532,0.2558,0.2597,0.261,0.2621,0.2637,0.2653,0.2655,0.2793,0.2795,0.29,0.2973,0.3051,0,0,0,0.2504,0.2497,0.253,0.2534,0.2558,0.2611,0.261,0.2637,0.2651,0.2654,0.2794,0.2796,0.2898,0.2967,0.3045,0.2808,0.2817,0,0,0.2482,0.2494,0.25,0.2532,0.2608,0.2605,0.2708,0.272,0.2705,0.2776,0.278,0.2907,0.2973,0.3049,0.2966,0.297,0,0,0,0.2485,0.2512,0.2529,0.2588,0.2625,0.2749,0.2752,0.2787,0.2868,0.273,0.2931,0.297,0.3014,0.2858,0.2863,0.2809,0.2809,0.2809,0.2809,0.2465,0.2522,0.2588,0.2685,0.2737,0.285,0.2936,0.3003,0.294,0.301,0.3079,0.3243,0.3078,0.3079,0.3082,0.3082,0.3083,0.3083,0.3083,0.2535,0.2614,0.2701,0.2796,0.293,0.3036,0.317,0.3182,0.3308,0.3227,0.3262,0.3007,0.309,0.3093,0.3091,0.309,0.3089,0.3088,0.3087,0.2598,0.2651,0.2714,0.2873,0.3036,0.3155,0.3301,0.3394,0.3434,0.3498,0.3289,0.3283,0.3309,0.3494,0.3494,0.3495,0.3496,0.3496,0.3497,0.2652,0.2719,0.2783,0.2939,0.3008,0.3153,0.3367,0.3457,0.3492,0.3426,0.3422,0.3381,0.3368,0.3334,0.3508,0.3506,0.3504,0.3503,0.3502,0.271,0.2717,0.2775,0.2826,0.298,0.3005,0.3225,0.3342,0.3475,0.3454,0.3369,0.3369,0.3312,0.3302,0.3267,0.3414,0.3414,0.3414,0.3414,0.2696,0.2729,0.2716,0.2738,0.2835,0.2916,0.2872,0.2845,0.3003,0.2942,0.2962,0.2775,0.2789,0.2692,0.2697,0.2645,0.2631,0.2629,0.2628,0.2664,0.2651,0.2593,0.2639,0.2729,0.2768,0.2552,0.2255,0.2326,0.2596,0.2812,0.3364,0.3135,0.314,0.3023,0.3019,0.2947,0,0]},{"header":{"parameterUnit":"m.s-1","parameterCategory":2,"la1":30.2992,"la2":30.254,"lo1":-89.0895,"lo2":-89.0443,"dy":0.0025,"dx":0.0025,"nx":19,"ny":19,"refTime":"2026-05-06T03:00:00:Z","depth":"2","parameterNumber":3,"parameterNumberName":"V-component_of_CURRENTS"},"data":[0,0,0,-0.0017,-0.0017,-0.0031,-0.0031,-0.0092,-0.0092,0,0,0,0,0,0,0,0,0,0,0,-0.0011,-0.0011,-0.0017,-0.0017,-0.0031,-0.0031,-0.0092,-0.0092,0,0,0,0,0,0,0,0,0,0,0,-0.0011,-0.0011,-0.0011,-0.0017,-0.0031,-0.0031,-0.0091,-0.0071,0,0,0,0,0,0,0,0,0,0,-0.0052,-0.0032,-0.0011,-0.0011,-0.0017,-0.0031,-0.0031,-0.007,-0.0072,-0.0096,0,-0.0095,0,-0.0095,-0.0097,-0.0097,0,0,0,-0.002,-0.0029,-0.0041,-0.0011,-0.0017,-0.0031,-0.0026,-0.0071,-0.0074,-0.01,-0.0095,-0.0097,-0.0096,-0.0097,-0.0098,-0.0027,-0.0026,0,0,-0.0019,-0.0009,-0.0038,-0.0042,-0.0017,-0.0025,-0.0026,-0.0072,-0.0071,-0.0096,-0.0099,-0.0097,-0.0098,-0.0098,-0.0029,-0.0027,0,0,0,-0.0015,-0.0008,-0.0018,-0.004,-0.004,-0.0026,-0.0027,-0.0068,-0.0073,-0.0099,-0.0098,-0.0098,-0.0099,-0.003,-0.0028,0.0142,0,0,0,-0.0015,-0.0006,-0.0017,-0.001,-0.0038,-0.0047,-0.0022,-0.007,-0.0075,-0.0098,-0.0098,-0.01,-0.0032,-0.0029,0.0134,0.0267,0,0,0,-0.0011,-0.0005,-0.0007,-0.001,-0.0016,-0.0046,-0.0053,-0.0071,-0.0075,-0.0097,-0.01,-0.0033,-0.003,0.0127,0.0253,0.0229,0,0,0,0.0,0.0034,-0.0007,0.0043,-0.0015,0.0041,-0.0052,-0.0027,-0.0033,-0.0099,-0.0031,-0.0028,0.0125,0.0245,0.0222,0.0064,0.008,0,0,0.0055,0.004,0.0075,0.0039,0.0141,0.0042,0.0147,0.0084,0.0004,-0.0024,-0.0022,0.0137,0.0252,0.0227,0.0242,0.0253,0,0,0,0.0103,0.0144,0.0162,0.0211,0.0213,0.0281,0.0194,0.0168,0.0157,0.0013,0.0152,0.0221,0.0198,0.0089,0.01,-0.0014,-0.0014,-0.0014,-0.0015,0.0216,0.024,0.0351,0.0393,0.0426,0.0438,0.0455,0.0408,0.0282,0.0311,0.0368,0.0492,0.0382,0.0387,0.0345,0.0346,0.0347,0.0347,0.0347,0.0384,0.0462,0.0526,0.0649,0.0701,0.0781,0.0733,0.0661,0.0628,0.0548,0.0512,0.029,0.0407,0.0361,0.0359,0.0357,0.0355,0.0354,0.0353,0.0519,0.055,0.0648,0.081,0.0973,0.0989,0.1051,0.1009,0.0825,0.0832,0.0588,0.0581,0.0559,0.077,0.077,0.0771,0.0771,0.0771,0.0772,0.0572,0.0665,0.0747,0.0955,0.1048,0.1171,0.1248,0.1175,0.099,0.0804,0.0799,0.0633,0.0619,0.0582,0.078,0.0779,0.0777,0.0777,0.0776,0.0578,0.0616,0.072,0.0819,0.1055,0.1216,0.1266,0.1128,0.1043,0.0868,0.071,0.0708,0.0621,0.0608,0.057,0.0753,0.0753,0.0753,0.0753,0.049,0.0556,0.0586,0.0715,0.0947,0.1176,0.1176,0.1058,0.0838,0.0691,0.0695,0.0584,0.0584,0.0487,0.0478,0.0433,0.0582,0.0583,0.0583,0.0339,0.0383,0.0375,0.0598,0.0895,0.1115,0.1187,0.1074,0.0733,0.0586,0.0764,0.0723,0.056,0.0561,0.0404,0.0393,0.0317,0,0]}],[{"header":{"parameterUnit":"m.s-1","parameterCategory":2,"la1":30.2992,"la2":30.254,"lo1":-89.0895,"lo2":-89.0443,"dy":0.0025,"dx":0.0025,"nx":19,"ny":19,"refTime":"2026-05-06T03:00:00:Z","depth":"4","parameterNumber":2,"parameterNumberName":"U-component_of_CURRENTS"},"data":[0,0,0,0.0597,0.0602,0.0976,0.0979,0.1436,0.1439,0,0,0,0,0,0,0,0,0,0,0,0.0538,0.054,0.0596,0.0602,0.0976,0.0979,0.1435,0.1439,0,0,0,0,0,0,0,0,0,0,0,0.0537,0.0539,0.0542,0.0603,0.0976,0.0979,0.1435,0.118,0,0,0,0,0,0,0,0,0,0,0.0829,0.0736,0.0539,0.0542,0.0604,0.0975,0.098,0.1169,0.1196,0.123,0,0.1288,0,0.1301,0.146,0.1461,0,0,0,0.0696,0.0714,0.0792,0.0543,0.0606,0.0974,0.0834,0.1185,0.1215,0.1265,0.1294,0.1309,0.1308,0.1462,0.1464,0.1784,0.1785,0,0,0.0675,0.0633,0.0771,0.0811,0.0702,0.0821,0.0844,0.1205,0.1246,0.1295,0.1319,0.1316,0.1464,0.1467,0.1783,0.1784,0,0,0,0.0553,0.0618,0.0692,0.0794,0.0823,0.083,0.0857,0.1234,0.1252,0.1324,0.1321,0.1466,0.147,0.1781,0.1783,0.1868,0,0,0,0.0545,0.0538,0.0682,0.0665,0.0815,0.1027,0.0877,0.1231,0.1268,0.1319,0.1466,0.1473,0.178,0.1782,0.1863,0.1765,0,0,0,0.0521,0.0535,0.0574,0.0661,0.0769,0.1022,0.1068,0.1242,0.1261,0.1462,0.1474,0.1779,0.1782,0.1859,0.1762,0.1745,0,0,0,0.0472,0.0543,0.0575,0.0674,0.0765,0.1023,0.1067,0.1268,0.1439,0.1468,0.178,0.1783,0.1858,0.176,0.1744,0.1541,0,0,0,0.0522,0.0549,0.0608,0.0641,0.091,0.0978,0.1244,0.1443,0.1489,0.1673,0.1683,0.1865,0.1762,0.1745,0.17,0,0,0,0,0.0597,0.0654,0.0744,0.0901,0.108,0.124,0.1444,0.1523,0.1721,0.1582,0.1895,0.1824,0.1812,0.1694,0.1796,0.1795,0.1795,0.1795,0.1795,0.0686,0.0774,0.0935,0.1084,0.123,0.1466,0.1601,0.1733,0.1827,0.1897,0.1923,0.1987,0.1877,0.2026,0.2027,0.2027,0.2027,0.2028,0.2028,0.0851,0.0904,0.1042,0.1213,0.1364,0.1561,0.1728,0.1811,0.1992,0.2019,0.2009,0.1829,0.2037,0.2035,0.2034,0.2033,0.2032,0.2032,0.2031,0.0953,0.0944,0.109,0.1258,0.1393,0.1522,0.1625,0.1807,0.1936,0.2003,0.1842,0.1986,0.194,0.2017,0.2016,0.2016,0.2016,0.2015,0.2015,0.0933,0.1049,0.107,0.1224,0.1268,0.1355,0.1559,0.1659,0.1796,0.1804,0.1974,0.1979,0.1979,0.1937,0.2009,0.201,0.2011,0.2011,0.2012,0.0845,0.0865,0.0918,0.0959,0.1059,0.1148,0.1356,0.1497,0.1565,0.1549,0.172,0.1736,0.1642,0.1649,0.1591,0.1562,0.1559,0.1557,0,0.067,0.0707,0.0695,0.0721,0.0782,0.0984,0.1066,0.1214,0.1353,0.1315,0.1498,0.1684,0.1698,0.1586,0.1589,0.1516,0,0,0,0.0475,0.0537,0.0466,0.0575,0.0652,0.0863,0.1089,0.1111,0.135,0.1361,0.1494,0.151,0.1802,0.1989,0.188,0.188,0.1803,0,0]},{"header":{"parameterUnit":"m.s-1","parameterCategory":2,"la1":30.2992,"la2":30.254,"lo1":-89.0895,"lo2":-89.0443,"dy":0.0025,"dx":0.0025,"nx":19,"ny":19,"refTime":"2026-05-06T03:00:00:Z","depth":"4","parameterNumber":3,"parameterNumberName":"V-component_of_CURRENTS"},"data":[0,0,0,0.0447,0.0446,0.0351,0.0351,0.0069,0.0067,0,0,0,0,0,0,0,0,0,0,0,0.048,0.0481,0.0447,0.0446,0.0352,0.0351,0.007,0.0067,0,0,0,0,0,0,0,0,0,0,0,0.048,0.048,0.0481,0.0446,0.0352,0.0351,0.007,0.0174,0,0,0,0,0,0,0,0,0,0,0.0283,0.0348,0.048,0.0481,0.0446,0.0352,0.0351,0.018,0.0167,0.0077,0,0.0088,0,0.008,0.0047,0.0046,0,0,0,0.0414,0.0359,0.0339,0.0481,0.0445,0.0352,0.0385,0.0174,0.0159,0.0059,0.0084,0.0075,0.0076,0.0045,0.0044,-0.0186,-0.0187,0,0,0.0419,0.0443,0.0351,0.0331,0.045,0.0388,0.0383,0.0167,0.0156,0.0084,0.0069,0.0071,0.0043,0.0041,-0.0186,-0.0187,0,0,0,0.0456,0.0447,0.0435,0.0342,0.0343,0.0387,0.038,0.0165,0.0165,0.0066,0.0068,0.0042,0.0038,-0.0186,-0.0186,-0.0165,0,0,0,0.0457,0.0471,0.0438,0.0448,0.0349,0.0275,0.0383,0.0179,0.0156,0.0069,0.0042,0.0035,-0.0185,-0.0186,-0.0165,-0.0197,0,0,0,0.0479,0.0472,0.0473,0.045,0.0425,0.028,0.0265,0.0175,0.0156,0.0046,0.0034,-0.0185,-0.0186,-0.0165,-0.0196,-0.0171,0,0,0,0.0488,0.0479,0.0474,0.0448,0.0427,0.0327,0.0267,0.0175,0.0086,0.004,-0.0185,-0.0186,-0.0164,-0.0195,-0.0171,-0.003,0,0,0,0.0474,0.0478,0.0457,0.0451,0.0355,0.0336,0.0212,0.0086,0.0039,-0.0131,-0.0136,-0.0165,-0.0196,-0.0171,-0.0079,0,0,0,0,0.045,0.0418,0.0391,0.0341,0.029,0.0194,0.0101,0.006,-0.0056,-0.0009,-0.0187,-0.0209,-0.0192,-0.0111,-0.019,-0.019,-0.019,-0.019,-0.019,0.042,0.0381,0.0305,0.023,0.0168,0.0078,0.001,-0.007,-0.0103,-0.013,-0.0206,-0.0201,-0.0115,-0.0201,-0.0201,-0.0201,-0.0201,-0.0201,-0.0201,0.0316,0.0242,0.0205,0.0113,0.0051,-0.0047,-0.0136,-0.014,-0.0217,-0.0226,-0.0208,-0.0114,-0.02,-0.02,-0.02,-0.02,-0.02,-0.02,-0.0201,0.0206,0.017,0.0141,0.0055,-0.002,-0.0088,-0.0091,-0.0154,-0.0225,-0.023,-0.011,-0.0198,-0.0182,-0.0189,-0.0189,-0.0189,-0.019,-0.019,-0.019,0.0114,0.0083,0.0097,0.0007,0.0028,0.0017,-0.0037,-0.0038,-0.0119,-0.0111,-0.0218,-0.0198,-0.0198,-0.0183,-0.019,-0.019,-0.019,-0.019,-0.019,0.0018,0.0072,0.0092,0.0139,0.0194,0.0186,0.0149,0.0111,0.0109,0.0069,-0.0033,-0.0041,-0.0039,-0.0044,-0.0022,0.0018,0.002,0.0021,0,0.0051,0.0036,0.0203,0.0319,0.038,0.0328,0.0375,0.0331,0.0175,0.0163,0.0084,-0.003,-0.0036,-0.0032,-0.0034,-0.0006,0,0,0,0.0134,0.0162,0.0322,0.0394,0.0477,0.0447,0.0391,0.0372,0.0193,0.0218,0.0066,0.0054,0.001,-0.0191,-0.0208,-0.0208,-0.0185,0,0]}]]